KD4EG Weather Reports


time (UTC)temp
C
wind
direction
speed
KPH
gust
KPH
rain 1hr
cm
rain 24hr
cm
rain mn
cm
humidity
%
barometer
mb
20260508063210 7 303 1.6 3.2 0.00 0.00 0.00 82 1017.4
20260508062707 7 305 1.6 1.6 0.00 0.00 0.00 81 1017.7
20260508062204 7 305 0.0 0.0 0.00 0.00 0.00 80 1017.5
20260508061701 7 311 0.0 0.0 0.00 0.00 0.00 80 1017.5
20260508061159 7 320 3.2 3.2 0.00 0.00 0.00 79 1017.5
20260508060655 8 304 1.6 1.6 0.00 0.00 0.00 78 1017.3
20260508060153 8 329 1.6 1.6 0.00 0.00 0.00 78 1017.5
20260508055648 8 299 1.6 1.6 0.00 0.00 0.00 77 1017.5
20260508055145 8 302 1.6 3.2 0.00 0.00 0.00 77 1017.6
20260508054642 8 339 1.6 3.2 0.00 0.00 0.00 77 1017.3
20260508054139 8 303 0.0 1.6 0.00 0.00 0.00 77 1017.3
20260508053636 8 337 1.6 1.6 0.00 0.00 0.00 77 1017.3
20260508053134 8 319 4.8 4.8 0.00 0.00 0.00 79 1017.3
20260508052631 8 344 1.6 3.2 0.00 0.00 0.00 79 1017.2
20260508052128 8 310 1.6 3.2 0.00 0.00 0.00 78 1017.0
20260508051624 8 319 0.0 1.6 0.00 0.00 0.00 78 1017.0
20260508051120 8 318 0.0 0.0 0.00 0.00 0.00 80 1016.8
20260508050616 7 335 0.0 0.0 0.00 0.00 0.00 80 1016.7
20260508050114 8 317 0.0 0.0 0.00 0.00 0.00 80 1016.5
20260508045609 8 307 0.0 0.0 0.00 0.00 0.00 79 1016.5
20260508045108 8 308 1.6 1.6 0.00 0.00 0.00 78 1016.5
20260508044604 8 316 1.6 1.6 0.00 0.00 0.00 79 1016.3
20260508044100 8 296 1.6 1.6 0.00 0.00 0.00 80 1016.6
20260508043557 8 305 0.0 1.6 0.00 0.00 0.00 82 1016.5
20260508043055 8 304 1.6 3.2 0.00 0.00 0.00 82 1016.6
20260508042551 8 330 1.6 1.6 0.00 0.00 0.00 82 1016.4
20260508042049 8 310 1.6 1.6 0.00 0.00 0.00 82 1016.4
20260508041545 8 313 0.0 1.6 0.00 0.00 0.00 82 1016.4
20260508041041 8 6 1.6 3.2 0.00 0.00 0.00 82 1016.5
20260508040538 8 295 1.6 1.6 0.00 0.00 0.00 81 1016.4
20260508040036 8 300 3.2 4.8 0.00 0.00 0.00 81 1016.3
20260508035532 8 301 0.0 1.6 0.00 0.00 0.00 81 1015.9
20260508035030 8 320 1.6 1.6 0.00 0.00 0.00 80 1016.0
20260508034527 8 310 1.6 1.6 0.00 0.00 0.00 80 1015.9
20260508034024 8 337 1.6 1.6 0.00 0.00 0.00 81 1016.2
20260508033521 8 308 0.0 0.0 0.00 0.00 0.00 81 1015.9
20260508033020 8 334 3.2 3.2 0.00 0.00 0.00 80 1016.0
20260508032516 9 321 3.2 3.2 0.00 0.00 0.00 81 1016.0
20260508032014 9 306 3.2 3.2 0.00 0.00 0.00 80 1015.8
20260508031511 9 305 3.2 3.2 0.00 0.00 0.00 80 1015.8
20260508031005 10 304 1.6 1.6 0.00 0.00 0.00 79 1015.5
20260508030503 10 292 3.2 3.2 0.00 0.00 0.00 78 1015.7
20260508030001 10 307 1.6 3.2 0.00 0.00 0.00 78 1015.7
20260508025456 10 301 3.2 3.2 0.00 0.00 0.00 78 1015.7
20260508024954 10 302 3.2 3.2 0.00 0.00 0.00 77 1015.4
20260508024449 10 299 1.6 1.6 0.00 0.00 0.00 77 1015.5
20260508023946 10 300 1.6 3.2 0.00 0.00 0.00 77 1015.6
20260508023443 10 316 0.0 1.6 0.00 0.00 0.00 75 1015.5
20260508022941 10 299 0.0 0.0 0.00 0.00 0.00 74 1015.5
20260508022436 11 292 3.2 3.2 0.00 0.00 0.00 73 1015.2
20260508021933 11 299 0.0 0.0 0.00 0.00 0.00 71 1015.1
20260508021430 11 299 3.2 3.2 0.00 0.00 0.00 69 1015.3
20260508020925 11 332 1.6 1.6 0.00 0.00 0.00 71 1015.0
20260508020424 11 323 0.0 1.6 0.00 0.00 0.00 73 1015.0
20260508015920 11 303 1.6 1.6 0.00 0.00 0.00 75 1014.9
20260508015418 11 308 1.6 1.6 0.00 0.00 0.00 75 1014.7
20260508014914 11 297 1.6 1.6 0.00 0.00 0.00 76 1014.7
20260508014411 11 295 3.2 3.2 0.00 0.00 0.00 76 1014.5
20260508013906 11 296 3.2 3.2 0.00 0.00 0.00 75 1014.6
20260508013403 11 302 0.0 0.0 0.00 0.00 0.00 74 1014.4
20260508012901 11 303 4.8 4.8 0.00 0.00 0.00 73 1014.3
20260508012357 12 304 1.6 1.6 0.00 0.00 0.00 71 1014.3
20260508011855 12 308 3.2 3.2 0.00 0.00 0.00 69 1014.4
20260508011353 12 8 1.6 1.6 0.00 0.00 0.00 67 1014.1
20260508010849 13 290 3.2 3.2 0.00 0.00 0.00 64 1014.3
20260508010347 13 10 4.8 4.8 0.00 0.00 0.00 64 1014.1
20260508005844 13 347 1.6 1.6 0.00 0.00 0.00 63 1013.8
20260508005341 13 291 4.8 8.0 0.00 0.00 0.00 60 1013.9
20260508004837 13 317 1.6 1.6 0.00 0.00 0.00 64 1013.6
20260508004333 13 302 0.0 0.0 0.00 0.00 0.00 61 1013.8
20260508003830 14 299 1.6 1.6 0.00 0.00 0.00 58 1013.8
20260508003327 14 298 1.6 1.6 0.00 0.00 0.00 60 1013.8
20260508002824 15 310 1.6 1.6 0.00 0.00 0.00 59 1013.8
20260508002321 15 317 0.0 0.0 0.00 0.00 0.00 57 1013.8
20260508001817 15 320 1.6 1.6 0.00 0.00 0.00 54 1013.6
20260508001313 15 326 3.2 3.2 0.00 0.00 0.00 53 1013.6
20260508000809 15 304 1.6 3.2 0.00 0.00 0.00 54 1013.6
20260508000306 15 266 4.8 4.8 0.00 0.00 0.00 54 1013.4
20260507235803 16 292 0.0 0.0 0.00 0.00 0.00 53 1013.6
20260507235300 16 3 3.2 4.8 0.00 0.00 0.00 52 1013.4
20260507234757 16 328 6.4 9.7 0.00 0.00 0.00 53 1013.4
20260507234253 16 289 9.7 11.3 0.00 0.00 0.00 52 1013.3
20260507233750 16 292 3.2 4.8 0.00 0.00 0.00 55 1013.0
20260507233248 17 328 3.2 3.2 0.00 0.00 0.00 52 1013.4
20260507232745 17 191 1.6 3.2 0.00 0.00 0.00 52 1013.0
20260507232242 17 338 1.6 3.2 0.00 0.00 0.00 52 1012.9
20260507231738 17 294 0.0 1.6 0.00 0.00 0.00 52 1012.9
20260507231235 17 331 6.4 8.0 0.00 0.00 0.00 51 1012.9
20260507230732 17 306 3.2 4.8 0.00 0.00 0.00 51 1012.7
20260507230230 17 152 3.2 4.8 0.00 0.00 0.00 52 1012.6
20260507225729 17 309 1.6 1.6 0.00 0.00 0.00 50 1012.5
20260507225226 17 281 8.0 8.0 0.00 0.00 0.00 50 1012.6
20260507224721 17 275 3.2 4.8 0.00 0.00 0.00 51 1012.5
20260507224218 18 270 4.8 8.0 0.00 0.00 0.00 50 1012.6
20260507223714 18 300 0.0 1.6 0.00 0.00 0.00 50 1012.5
20260507223211 17 306 3.2 3.2 0.00 0.00 0.00 51 1012.7
20260507222708 17 274 8.0 9.7 0.00 0.00 0.00 51 1012.6
20260507222204 17 307 11.3 16.1 0.00 0.00 0.00 50 1012.2
20260507221701 18 285 9.7 11.3 0.00 0.00 0.00 51 1012.1
20260507221157 17 293 6.4 9.7 0.00 0.00 0.00 52 1012.2
20260507220654 18 337 6.4 8.0 0.00 0.00 0.00 50 1012.3
20260507220153 18 255 11.3 14.5 0.00 0.00 0.00 51 1012.2
20260507215648 18 300 1.6 1.6 0.00 0.00 0.00 51 1012.1
20260507215146 18 282 9.7 16.1 0.00 0.00 0.00 51 1012.0
20260507214643 18 357 6.4 8.0 0.00 0.00 0.00 52 1012.0
20260507214139 19 303 4.8 8.0 0.00 0.00 0.00 52 1012.0
20260507213635 19 296 1.6 3.2 0.00 0.00 0.00 54 1011.8
20260507213133 18 265 3.2 4.8 0.00 0.00 0.00 53 1012.1
20260507212629 18 291 8.0 12.9 0.00 0.00 0.00 53 1011.7
20260507212126 18 269 4.8 8.0 0.00 0.00 0.00 53 1011.9
20260507211623 18 301 8.0 11.3 0.00 0.00 0.00 55 1011.9
20260507211118 17 349 12.9 16.1 0.00 0.00 0.00 57 1012.0
20260507210616 17 1 6.4 11.3 0.00 0.00 0.00 59 1011.9
20260507210112 17 308 4.8 8.0 0.00 0.00 0.00 61 1011.8
20260507205609 17 314 3.2 3.2 0.00 0.00 0.00 67 1011.6
20260507205105 17 223 4.8 8.0 0.00 0.00 0.00 69 1011.4
20260507204602 16 283 1.6 1.6 0.00 0.00 0.00 69 1011.6
20260507204059 16 335 3.2 4.8 0.00 0.00 0.00 70 1011.6
20260507203557 16 291 4.8 4.8 0.00 0.00 0.00 70 1011.7
20260507203054 16 246 4.8 8.0 0.00 0.00 0.00 70 1011.7
20260507202550 16 305 1.6 3.2 0.00 0.00 0.00 71 1011.6
20260507202046 16 106 4.8 4.8 0.00 0.00 0.00 71 1011.8
20260507201542 16 295 3.2 3.2 0.00 0.00 0.00 71 1011.8
20260507201039 16 298 4.8 4.8 0.00 0.00 0.00 70 1011.5
20260507200534 16 249 6.4 8.0 0.00 0.00 0.00 70 1011.8
20260507200030 16 180 8.0 11.3 0.00 0.00 0.00 69 1012.1
20260507195528 17 153 4.8 4.8 0.00 0.00 0.00 68 1012.0
20260507195025 16 231 1.6 1.6 0.00 0.00 0.00 69 1012.1
20260507194521 16 4 4.8 4.8 0.00 0.00 0.00 69 1012.2
20260507194018 16 211 4.8 4.8 0.00 0.00 0.00 69 1012.5
20260507193515 16 315 3.2 3.2 0.00 0.00 0.00 70 1012.5
20260507193012 16 331 4.8 4.8 0.00 0.00 0.00 70 1012.7
20260507192508 15 225 4.8 4.8 0.00 0.00 0.00 69 1012.7
20260507192005 15 312 6.4 8.0 0.00 0.00 0.00 70 1012.8
20260507191500 15 291 1.6 1.6 0.00 0.00 0.00 71 1012.9
20260507190957 15 359 8.0 9.7 0.00 0.00 0.00 71 1012.7
20260507190455 15 299 1.6 1.6 0.00 0.00 0.00 71 1012.6
20260507185954 15 168 6.4 9.7 0.00 0.00 0.00 73 1013.0
20260507185450 15 284 1.6 1.6 0.00 0.00 0.00 72 1013.0
20260507184947 15 343 6.4 9.7 0.00 0.00 0.00 73 1013.3
20260507184445 15 249 4.8 8.0 0.00 0.00 0.00 73 1013.3
20260507183943 15 290 1.6 1.6 0.00 0.00 0.00 73 1013.3
20260507183439 15 230 4.8 4.8 0.00 0.00 0.00 74 1013.4
20260507182936 15 297 0.0 0.0 0.00 0.00 0.00 77 1013.4
20260507182432 14 292 1.6 1.6 0.00 0.00 0.00 78 1013.5
20260507181928 14 309 3.2 3.2 0.00 0.00 0.00 79 1013.5
20260507181425 14 295 4.8 8.0 0.00 0.00 0.00 79 1013.3
20260507180922 14 9 6.4 8.0 0.00 0.00 0.00 77 1013.5
20260507180418 14 270 3.2 4.8 0.00 0.00 0.00 77 1013.3
20260507175914 14 287 1.6 3.2 0.00 0.00 0.00 77 1013.0
20260507175411 14 307 0.0 1.6 0.00 0.00 0.00 77 1013.5
20260507174909 14 299 0.0 1.6 0.00 0.00 0.00 77 1013.4
20260507174406 14 282 4.8 4.8 0.00 0.00 0.00 77 1013.3
20260507173904 15 209 1.6 3.2 0.00 0.00 0.00 77 1013.4
20260507173400 15 297 3.2 3.2 0.00 0.00 0.00 78 1013.2
20260507172857 14 313 4.8 4.8 0.00 0.00 0.00 78 1013.4
20260507172354 14 305 3.2 3.2 0.00 0.00 0.00 79 1013.6
20260507171850 14 313 4.8 4.8 0.00 0.00 0.00 78 1013.5
20260507171346 14 355 1.6 3.2 0.00 0.00 0.00 78 1013.5
20260507170844 14 20 4.8 4.8 0.00 0.00 0.00 78 1013.6
20260507170340 14 289 3.2 4.8 0.00 0.00 0.00 79 1013.3
20260507165836 14 295 0.0 1.6 0.00 0.00 0.00 79 1013.3
20260507165332 14 298 3.2 3.2 0.00 0.00 0.00 79 1013.4
20260507164828 14 344 4.8 8.0 0.00 0.00 0.00 79 1013.6
20260507164325 14 297 1.6 3.2 0.00 0.00 0.00 79 1013.5
20260507163822 14 297 4.8 4.8 0.00 0.00 0.00 79 1013.7
20260507163320 14 325 1.6 3.2 0.00 0.00 0.00 79 1013.5
20260507162816 14 50 1.6 3.2 0.00 0.00 0.00 79 1013.4
20260507162312 14 282 6.4 8.0 0.00 0.00 0.00 78 1013.7
20260507161809 15 293 4.8 4.8 0.00 0.00 0.00 78 1013.4
20260507161306 15 304 4.8 4.8 0.00 0.00 0.00 79 1013.4
20260507160802 15 250 4.8 4.8 0.00 0.00 0.00 79 1013.4
20260507160258 15 357 3.2 3.2 0.00 0.00 0.00 79 1013.4
20260507155754 15 286 3.2 4.8 0.00 0.00 0.00 79 1013.6
20260507155250 15 309 1.6 1.6 0.00 0.00 0.00 79 1013.6
20260507154747 15 312 1.6 1.6 0.00 0.00 0.00 79 1013.8
20260507154245 15 298 1.6 1.6 0.00 0.00 0.00 80 1013.9
20260507153741 15 304 1.6 3.2 0.00 0.00 0.00 80 1013.7
20260507153237 15 298 1.6 3.2 0.00 0.00 0.00 80 1014.2
20260507152734 15 311 1.6 3.2 0.00 0.00 0.00 79 1013.9
20260507152230 15 296 4.8 4.8 0.00 0.00 0.00 79 1014.0
20260507151726 15 294 1.6 1.6 0.00 0.00 0.00 79 1013.9
20260507151223 15 302 0.0 0.0 0.00 0.00 0.00 79 1013.7
20260507150720 15 330 1.6 1.6 0.00 0.00 0.00 80 1013.6
20260507150217 15 347 0.0 1.6 0.00 0.00 0.00 81 1013.6
20260507145712 15 285 4.8 4.8 0.00 0.00 0.00 81 1013.6
20260507145209 15 296 0.0 1.6 0.00 0.00 0.00 81 1013.6
20260507144706 15 301 1.6 3.2 0.00 0.00 0.00 81 1013.4
20260507144204 15 303 1.6 1.6 0.00 0.00 0.00 80 1013.7
20260507143701 15 319 0.0 1.6 0.00 0.00 0.00 81 1013.6
20260507143158 15 303 4.8 4.8 0.00 0.00 0.00 81 1013.6
20260507142653 15 282 1.6 3.2 0.00 0.00 0.00 80 1013.4
20260507142150 15 308 3.2 3.2 0.00 0.00 0.00 80 1013.8
20260507141646 15 291 3.2 3.2 0.00 0.00 0.00 80 1013.6
20260507141143 15 319 3.2 4.8 0.00 0.00 0.00 79 1013.6
20260507140640 15 293 3.2 4.8 0.00 0.00 0.00 79 1013.7
20260507140137 15 295 3.2 3.2 0.00 0.00 0.00 79 1013.3
20260507135634 15 297 3.2 3.2 0.00 0.00 0.00 80 1013.3
20260507135132 15 299 0.0 1.6 0.00 0.00 0.00 79 1013.4
20260507134628 15 294 3.2 3.2 0.00 0.00 0.00 80 1013.6
20260507134124 15 313 4.8 4.8 0.00 0.00 0.00 80 1014.0
20260507133620 15 297 3.2 3.2 0.00 0.00 0.00 79 1014.0
20260507133118 15 301 0.0 3.2 0.00 0.00 0.00 80 1013.8
20260507132615 15 314 4.8 4.8 0.00 0.00 0.00 79 1013.9
20260507132111 15 354 1.6 3.2 0.00 0.00 0.00 80 1013.8
20260507131608 16 300 3.2 3.2 0.00 0.00 0.00 80 1014.0
20260507131106 15 8 1.6 1.6 0.00 0.00 0.00 80 1014.2
20260507130602 15 281 6.4 8.0 0.00 0.00 0.00 79 1013.8
20260507130100 15 274 1.6 1.6 0.00 0.00 0.00 79 1013.8
20260507125558 15 300 1.6 1.6 0.00 0.00 0.00 79 1013.5
20260507125055 15 314 1.6 1.6 0.00 0.00 0.00 80 1013.7
20260507124552 15 291 1.6 1.6 0.00 0.00 0.00 80 1013.7
20260507124050 15 296 0.0 1.6 0.00 0.00 0.00 80 1014.0
20260507123547 15 286 3.2 3.2 0.00 0.00 0.00 80 1014.0
20260507123044 15 303 3.2 3.2 0.00 0.00 0.00 79 1014.0
20260507122539 15 298 1.6 3.2 0.00 0.00 0.00 80 1013.8
20260507122035 15 311 4.8 4.8 0.00 0.00 0.00 80 1013.9
20260507121531 15 327 3.2 4.8 0.00 0.00 0.00 80 1013.7
20260507121027 15 303 1.6 3.2 0.00 0.00 0.00 80 1013.7
20260507120523 15 310 3.2 4.8 0.00 0.00 0.00 80 1013.8
20260507120021 15 325 4.8 4.8 0.00 0.00 0.00 79 1013.9
20260507115517 15 350 8.0 9.7 0.00 0.00 0.00 80 1013.5
20260507115013 15 306 3.2 3.2 0.00 0.00 0.00 81 1013.7
20260507114509 15 306 0.0 1.6 0.00 0.00 0.00 81 1013.8
20260507114006 15 285 1.6 1.6 0.00 0.00 0.00 81 1013.7
20260507113503 15 316 1.6 1.6 0.00 0.00 0.00 81 1013.5
20260507113000 15 341 1.6 3.2 0.00 0.00 0.00 81 1013.6
20260507112458 15 300 4.8 8.0 0.00 0.00 0.00 80 1013.4
20260507111954 15 311 3.2 4.8 0.00 0.00 0.00 82 1013.2
20260507111452 15 309 1.6 1.6 0.00 0.00 0.00 84 1013.4
20260507110948 15 305 0.0 1.6 0.00 0.00 0.00 85 1013.2
20260507110444 15 305 0.0 0.0 0.00 0.00 0.00 85 1012.9
20260507105941 15 343 0.0 1.6 0.00 0.00 0.00 85 1013.0
20260507105438 15 305 0.0 0.0 0.00 0.00 0.00 84 1013.0
20260507104935 15 301 0.0 0.0 0.00 0.00 0.00 84 1013.0
20260507104432 15 300 1.6 1.6 0.00 0.00 0.00 84 1012.8
20260507103927 15 287 1.6 1.6 0.00 0.00 0.00 83 1013.0
20260507103424 15 301 1.6 3.2 0.00 0.00 0.00 83 1013.2
20260507102920 15 310 0.0 1.6 0.00 0.00 0.00 82 1013.0
20260507102417 15 296 1.6 3.2 0.00 0.00 0.00 82 1012.9
20260507101914 15 304 0.0 1.6 0.00 0.00 0.00 82 1012.8
20260507101409 15 294 4.8 4.8 0.00 0.00 0.00 83 1012.8
20260507100905 15 17 1.6 3.2 0.00 0.00 0.00 86 1012.7
20260507100403 15 15 4.8 4.8 0.00 0.00 0.00 86 1012.7
20260507095901 15 309 3.2 3.2 0.00 0.00 0.00 86 1012.9
20260507095358 15 301 1.6 3.2 0.00 0.00 0.00 86 1012.6
20260507094855 15 285 3.2 3.2 0.00 0.00 0.00 85 1012.9
20260507094351 15 301 4.8 8.0 0.00 0.00 0.00 85 1013.0
20260507093848 15 302 1.6 1.6 0.00 0.00 0.00 86 1012.8
20260507093346 15 305 1.6 1.6 0.00 0.00 0.00 86 1013.0
20260507092844 15 312 1.6 1.6 0.00 0.00 0.00 86 1012.9
20260507092340 15 289 1.6 3.2 0.00 0.00 0.00 87 1012.8
20260507091837 15 301 3.2 3.2 0.00 0.00 0.00 86 1013.2
20260507091333 15 298 1.6 1.6 0.00 0.00 0.00 86 1012.9
20260507090829 15 299 1.6 1.6 0.00 0.00 0.00 87 1012.7
20260507090326 15 318 6.4 9.7 0.00 0.00 0.00 88 1012.5
20260507085823 15 284 3.2 3.2 0.00 0.00 0.00 88 1012.1
20260507085320 15 349 0.0 1.6 0.00 0.00 0.00 89 1012.3
20260507084817 15 296 3.2 3.2 0.00 0.00 0.00 91 1012.5
20260507084313 16 293 1.6 1.6 0.00 0.00 0.00 94 1012.4
20260507083811 16 301 0.0 0.0 0.00 0.00 0.00 94 1012.6
20260507083307 16 304 0.0 0.0 0.00 0.00 0.00 94 1012.7
20260507082803 16 300 1.6 1.6 0.00 0.00 0.00 94 1012.7
20260507082259 16 311 3.2 3.2 0.00 0.00 0.00 93 1012.7
20260507081756 16 300 0.0 0.0 0.00 0.00 0.00 93 1012.5
20260507081252 16 303 0.0 0.0 0.00 0.00 0.00 93 1012.5
20260507080749 16 301 0.0 0.0 0.00 0.00 0.00 92 1012.6
20260507080245 16 299 0.0 0.0 0.00 0.00 0.00 92 1012.6
20260507075740 16 292 1.6 1.6 0.00 0.00 0.00 91 1013.0
20260507075237 16 292 0.0 0.0 0.00 0.00 0.00 90 1012.3
20260507074733 16 268 1.6 1.6 0.00 0.00 0.00 89 1012.5
20260507074232 16 287 1.6 1.6 0.00 0.00 0.00 89 1012.5
20260507073728 16 312 0.0 0.0 0.00 0.00 0.00 88 1012.8
20260507073224 16 318 1.6 1.6 0.00 0.00 0.00 88 1012.6
20260507072723 17 307 0.0 1.6 0.00 0.00 0.00 87 1012.5
20260507072220 16 273 6.4 8.0 0.00 0.00 0.00 88 1012.8
20260507071717 16 302 1.6 3.2 0.00 0.00 0.00 92 1012.3
20260507071213 16 309 0.0 1.6 0.00 0.00 0.00 91 1012.6
20260507070710 17 314 1.6 1.6 0.00 0.00 0.00 90 1012.3
20260507070207 17 305 1.6 1.6 0.00 0.00 0.00 89 1012.3
20260507065703 17 339 1.6 1.6 0.00 0.00 0.00 90 1012.1
20260507065201 17 300 1.6 1.6 0.00 0.00 0.00 91 1012.2
20260507064658 17 296 0.0 1.6 0.00 0.00 0.00 93 1012.3
20260507064156 16 330 3.2 3.2 0.00 0.00 0.00 95 1012.2
20260507063654 17 306 1.6 3.2 0.00 0.00 0.00 96 1012.7